Brownsville, TX

12:49 PM CDT on May 27, 2017 (GMT -0500)
Brownsville-South Padre I International

Weather History for KBRO - November, 2012

Change the Weather History Date:

Friday, November 30, 2012

  Actual Average Record
Temperature  
Mean Temperature 75 °F 65 °F  
Max Temperature 85 °F 75 °F 90 °F (1981)
Min Temperature 65 °F 56 °F 27 °F (1911)
Degree Days  
Heating Degree Days 0 3  
Month to date heating degree days 1 51  
Since 1 July heating degree days 3 54  
Cooling Degree Days 10 4  
Month to date cooling degree days 227 180  
Year to date cooling degree days 4660 3945  
Growing Degree Days 25 (Base 50)    
Moisture  
Dew Point 67 °F    
Average Humidity 78    
Maximum Humidity 100    
Minimum Humidity 55    
Precipitation  
Precipitation 0.00 in 0.04 in 1.46 in (1992)
Month to date precipitation 0.16 1.82  
Year to date precipitation 21.08 26.29  
Sea Level Pressure  
Sea Level Pressure 30.10 in    
Wind  
Wind Speed 7 mph (SE)    
Max Wind Speed 17 mph    
Max Gust Speed 22 mph    
Visibility 10 miles    
Events      
T = Trace of Precipitation, MM = Missing Value Source: NWS Daily Summary

Daily Weather History Graph

Daily Weather History Graph

Search for Another Location

Airport or City:

Trip Planner

Search our weather history database for the weather conditions in past years. The results will help you decide how hot, cold, wet, or windy it might be!

Date:

Astronomy

Nov. 30, 2012 Rise Set
Actual Time 6:59 AM CST 5:37 PM CST
Civil Twilight 6:34 AM CST 6:02 PM CST
Nautical Twilight 6:05 AM CST 6:31 PM CST
Astronomical Twilight 5:37 AM CST 6:59 PM CST
Moon 7:32 PM CST (11/30) 8:32 AM CST (11/30)
Length of Visible Light 11h 28m
Length of Day
10h 38m
Waning Gibbous, 96% of the Moon is Illuminated
Nov 30
Waning Gibbous
Dec 6
Last Quarter
Dec 13
New
Dec 19
First Quarter
Dec 28
Full

Hourly Weather History & Observations

Time (CST) Temp. Heat Index Dew Point Humidity Pressure Visibility Wind Dir Wind Speed Gust Speed Precip Events Conditions
12:53 AM 71.1 °F - 66.0 °F 84% 30.11 in 10.0 mi ESE 6.9 mph - N/A   Partly Cloudy
1:53 AM 71.1 °F - 66.9 °F 87% 30.10 in 10.0 mi ESE 4.6 mph - N/A   Mostly Cloudy
2:53 AM 68.0 °F - 66.0 °F 93% 30.10 in 10.0 mi South 3.5 mph - N/A   Scattered Clouds
3:53 AM 66.9 °F - 66.0 °F 97% 30.10 in 10.0 mi Calm Calm - N/A   Scattered Clouds
4:37 AM 64.4 °F - 64.4 °F 100% 30.10 in 2.0 mi Calm Calm - N/A   Clear
4:46 AM 66.2 °F - 64.4 °F 94% 30.10 in 9.0 mi Calm Calm - N/A   Scattered Clouds
4:53 AM 66.9 °F - 66.9 °F 100% 30.09 in 8.0 mi Calm Calm - N/A   Mostly Cloudy
5:53 AM 68.0 °F - 66.0 °F 93% 30.10 in 10.0 mi Calm Calm - N/A   Overcast
6:53 AM 68.0 °F - 66.9 °F 96% 30.12 in 10.0 mi Calm Calm - N/A   Overcast
7:40 AM 68.0 °F - 66.2 °F 94% 30.13 in 10.0 mi Calm Calm - N/A   Scattered Clouds
7:53 AM 70.0 °F - 69.1 °F 97% 30.13 in 10.0 mi Calm Calm - N/A   Scattered Clouds
8:53 AM 77.0 °F - 69.1 °F 76% 30.14 in 10.0 mi SE 4.6 mph - N/A   Partly Cloudy
9:53 AM 80.1 °F 82.7 °F 68.0 °F 67% 30.14 in 10.0 mi SSE 10.4 mph - N/A   Scattered Clouds
10:53 AM 81.0 °F 83.3 °F 66.9 °F 62% 30.14 in 10.0 mi SE 8.1 mph - N/A   Scattered Clouds
11:53 AM 82.0 °F 84.1 °F 66.0 °F 58% 30.11 in 10.0 mi South 10.4 mph - N/A   Partly Cloudy
12:53 PM 84.9 °F 87.6 °F 66.9 °F 55% 30.08 in 10.0 mi SE 13.8 mph 19.6 mph N/A   Mostly Cloudy
1:53 PM 82.9 °F 85.4 °F 66.9 °F 58% 30.06 in 10.0 mi SE 12.7 mph - N/A   Mostly Cloudy
2:53 PM 82.9 °F 85.0 °F 66.0 °F 56% 30.05 in 10.0 mi SSE 13.8 mph - N/A   Partly Cloudy
3:53 PM 82.0 °F 84.1 °F 66.0 °F 58% 30.05 in 10.0 mi SE 15.0 mph - N/A   Clear
4:53 PM 79.0 °F - 68.0 °F 69% 30.05 in 10.0 mi SE 15.0 mph - N/A   Clear
5:53 PM 75.9 °F - 69.1 °F 79% 30.06 in 10.0 mi SE 11.5 mph - N/A   Clear
6:53 PM 73.9 °F - 70.0 °F 87% 30.08 in 10.0 mi SE 8.1 mph - N/A   Clear
7:53 PM 73.0 °F - 69.1 °F 87% 30.09 in 10.0 mi SE 6.9 mph - N/A   Clear
8:53 PM 72.0 °F - 69.1 °F 91% 30.10 in 10.0 mi SE 8.1 mph - N/A   Clear
9:53 PM 72.0 °F - 69.1 °F 91% 30.10 in 10.0 mi SE 6.9 mph - N/A   Clear
10:53 PM 71.1 °F - 69.1 °F 93% 30.11 in 10.0 mi ESE 6.9 mph - N/A   Clear
11:53 PM 71.1 °F - 69.1 °F 93% 30.10 in 10.0 mi SE 6.9 mph - N/A   Clear